Location: Iesi
(43.5167°N, 13.2333°E)
Time: 18:42:38
(UTC+00:00)

ERS-1 Rocket - Pass Details

Date: 08 August 2020
Orbit: 753 x 757 km, 98.5° (Epoch: 23 September)

Event Time Altitude Azimuth Distance (km) Brightness Sun altitude
Exits shadow 21:36:09 28° 243° (WSW) 1,388 4.3 -26.7°
Maximum altitude 21:37:07 30° 264° (W) 1,326 4.3 -26.8°
Drops below altitude 10° 21:41:33 10° 326° (NW) 2,289 6.4 -27.1°
Sets 21:44:07 0° 337° (NNW) 3,218 7.5 -27.3°
